www.pogodaiklimat.ru

Погода и климат >> Архив погоды >> Иран >> Йезд


ПОГОДА в Йезде

  • Прогноз погоды в Йезде
  • Монитор погоды в Йезде

АРХИВ ПОГОДЫ в Йезде

Время (UTC), дата Ветер
(напр.,м/с)
 
Видим.   Явления Облачность Т
(С)
Тd
(С)
f
(%)
Тe
(С)
Тes
(С)
Комфортность P
(гПа)
Po
(гПа)
Тmin
(С)
Tmax
(С)
R
(мм)
R24
(мм)
S
(см)
15 11.02 СЗ 2 5000 м дождь 10/6 750 м
[Cb calv As op]
+8.4 +8.4 100 +6 +6 1014.2 875.3 +11.1
18 11.02 ЮВ 3 5000 м слаб. дождь 10/6 750 м
[Cb calv As op]
+7.5 +7.5 100 +4 +4 1013.0 874.3 10
21 11.02 Ю 3 4000 м слаб. дождь 10/6 750 м
[Cb calv As op]
+7.1 +7.1 100 +4 +4 1013.1 874.6
00 12.02 В 3 8000 м дымка {дождь} 8/5 750 м
[Cb calv As op]
+6.7 +6.0 95 +3 +3 1011.5 873.1 4
03 12.02 СЗ 2 4000 м дымка 9/5 750 м
[Cb calv Ac As]
+5.2 +4.3 94 +2 +2 1012.8 873.4 +5.2
06 12.02 СЗ 5 800 м слаб. ливневой снег 10/10 600 м
[Cb cap As op]
+1.6 +1.2 97 -4 -4 1017.1 875.9 6
09 12.02 СЗ 4 3500 м слаб. дождь 10/9 750 м
[Cb calv As op]
+4.6 +3.9 95 0 0 1016.0 875.7
12 12.02 З 4 7000 м дымка {ливн. осадки, снег} 10/9 750 м
[Cb calv Ac As Cs]
+5.9 +4.5 91 +2 +2 1016.1 876.0 8
15 12.02 З 6 4000 м слаб. ливневой дождь 10/9 600 м
[Cb calv As op]
+4.1 +3.2 94 -2 -2 1019.4 878.2 +6.0 666
18 12.02 З 3 10 км {ливн. осадки, дождь} 9/6 200 м
[Cb calv Ac As Ci fib]
+4.4 +3.4 93 +1 +1 1023.5 880.8 4
21 12.02 З 1 10 км 5/0
[Ac As Ci fib]
+3.9 +1.6 85 +2 +2 1023.8 881.6
00 13.02 Ю 1 10 км 3/0
[Ci fib]
+1.9 -0.4 85 0 0 1024.9 882.3
03 13.02 ЮВ 2 18 км 1/1 1000 м
[Sc diur, vesp]
+2.6 +1.6 93 -1 -1 1026.4 883.4 +1.6 666
06 13.02 ЮВ 2 8000 м мгла 1/1 1000 м
[Cu hum]
+6.6 +3.0 78 +4 +11 1027.3 885.2
09 13.02 В 1 20 км 1/1 1050 м
[Cu hum]
+10.6 -6.4 30 +11 +22 опасность
простуды
1025.4 884.2
12 13.02 ЮВ 1 20 км 1/1 1000 м
[Cu hum]
+12.6 -2.5 35 +13 +16 1023.6 882.7
15 13.02 В 1 30 км ясно +10.1 -0.6 47 +10 +10 1024.3 882.9 +12.7
18 13.02 ЮВ 3 30 км ясно +8.1 +3.9 75 +6 +6 1023.1 882.6
21 13.02 ЮВ 3 15 км ясно +6.0 +4.2 88 +3 +3 1022.0 882.0
00 14.02 ЮВ 3 15 км ясно +5.2 +2.0 80 +2 +2 1021.0 881.3
03 14.02 ЮВ 3 15 км ясно +3.2 +2.5 95 -1 -1 1022.9 881.9 +2.9
06 14.02 ЮВ 2 30 км ясно +8.3 -1.7 49 +7 +14 1023.5 883.1
09 14.02 В 2 30 км ясно +13.3 -3.4 31 +13 +24 опасность
простуды
1020.6 881.2
12 14.02 Ю 1 30 км 1/0
[Ci fib]
+16.2 -7.9 18 +17 +21 1018.4 879.7
15 14.02 ЮВ 1 30 км 3/0
[Ci fib]
+13.2 -5.3 27 +14 +14 1020.5 880.4 +17.4 666
18 14.02 ЮВ 2 20 км ясно +10.8 +2.0 55 +10 +10 1020.0 880.8
21 14.02 ЮВ 3 20 км ясно +8.1 +4.8 80 +5 +5 1018.0 879.7
00 15.02 Ю 3 20 км 4/0
[Ci sp]
+8.4 +0.7 58 +6 +6 1016.4 878.8
03 15.02 Ю 3 20 км 8/5 1050 м
[Sc Ac As Cs]
+8.6 -1.1 50 +7 +7 1018.1 879.6 +7.0
06 15.02 ЮВ 5 25 км 6/3 1050 м
[Sc diur, vesp Ac As]
+11.9 -1.6 39 +10 +12 1018.3 880.0
09 15.02 ЮВ 3 25 км 3/1 1050 м
[Cu hum Ac As]
+19.6 -0.6 26 +20 +27 1014.2 877.6
12 15.02 ЮВ 3 25 км 4/3 1050 м
[Sc diur, vesp Ac As]
+21.6 +0.4 24 +21 +23 комфорт 1011.3 875.6
15 15.02 Ю 3 25 км 8/6 1050 м
[Cb calv Ac As]
+18.9 +5.3 41 +19 +19 1012.0 875.8 +22.2 666
18 15.02 В 2 15 км 10/3 1050 м
[Sc diur, vesp Ac und Cs]
+15.4 +6.9 57 +15 +15 1012.4 876.1
21 15.02 В 2 15 км 8/3 1050 м
[Sc diur, vesp Ac und Ci fib]
+14.4 +6.9 61 +14 +14 1010.6 875.2
00 16.02 СВ 2 15 км 6/3 1050 м
[Sc diur, vesp Ac As Ci fib]
+12.3 +8.6 78 +11 +11 1008.0 873.8
03 16.02 Ю 2 15 км 8/3 1050 м
[Sc diur, vesp Ac As Cs]
+13.4 +7.9 69 +13 +13 1008.6 874.0 +11.8 666
06 16.02 В 1 8000 м в посл. час ливневой дождь 9/9 200 м
[Cb calv Ac As]
+13.9 +13.9 100 +14 +15 1010.2 875.0 0.1
09 16.02 Ю 1 10 км в посл. час ливневой дождь 5/5 900 м
[Cb calv]
+18.4 +6.2 45 +20 +26 1008.1 873.6
12 16.02 СЗ 11 6000 м пыльный позёмок {ливн. осадки, дождь} 8/6 900 м
[Cb calv Ac As]
+14.4 +3.9 49 +12 +12 1010.0 873.9 0.1
15 16.02 ЮЗ 5 10 км 4/4 750 м
[Cb calv]
+12.4 +4.2 57 +10 +10 1011.7 875.1 +19.1
18 16.02 З 3 10 км 1/1 1050 м
[Sc diur, vesp]
+10.4 +0.1 49 +9 +9 1013.6 876.3
21 16.02 СЗ 3 15 км ясно +8.3 -4.0 42 +6 +6 1013.0 876.3
00 17.02 ЮЗ 2 15 км ясно +5.7 -2.2 57 +4 +4 1014.1 875.8
03 17.02 В 1 20 км ясно +5.6 -3.4 52 +5 +5 1015.6 876.6 +4.5
06 17.02 СВ 2 12 км ясно +9.8 -1.7 45 +9 +16 1015.9 877.4
09 17.02 ЮЗ 1 12 км ясно +15.3 -8.8 18 +16 +30 опасность
простуды
1012.0 875.3
12 17.02 З 4 15 км 1/1 1050 м
[Cu hum]
+16.7 -16.2 9 +16 +18 1009.7 873.0
15 17.02 СЗ 5 20 км 1/1 1000 м
[Sc diur, vesp]
+13.4 -15.8 12 +12 +12 1010.4 872.9 +16.8
18 17.02 СЗ 6 35 км ясно +10.5 -12.1 19 +8 +8 1012.0 874.6
21 17.02 СЗ 2 35 км ясно +7.8 -7.9 32 +7 +7 1011.9 875.3
00 18.02 СЗ 5 35 км ясно +5.0 -1.6 62 +1 +1 1013.7 876.5
03 18.02 З 3 20 км ясно +4.1 0.0 75 +1 +1 1015.4 877.1 +4.1
06 18.02 СЗ 1 30 км ясно +8.2 -1.8 49 +8 +17 1015.5 877.4
09 18.02 СВ 2 25 км 1/1 1050 м
[Cu hum]
+11.2 -2.5 38 +11 +21 опасность
простуды
1012.1 874.5 666

 

Местоположение метеостанции Йезд (Иран): широта 31.90 долгота 54.28 высота над уровнем моря 1237 м.

В архиве по умолчанию представлена погода в Йезде за последнюю неделю. Архивные данные за месяц целиком и за предыдущие месяцы, начиная с января 2011 года, Вы можете получить, выбрав интересующий диапазон дат из раскрывающегося списка и нажав кнопку "Ввод!".


*Определитесь, кто Вы:
робот инопланетянин человек

Внимание! Время в таблицах - всемирное. Для получения местного времени необходимо прибавить поправку, которая равна 3.5 ч.

Смотрите также архив погоды в соседних городах и на ближайших метеорологических станциях:

Погода в Абаде (Иран) (172 км)
Погода в Хоре (Иран) (222 км)
Погода в Исфахане (Иран) (254 км)
Погода в Ясудже (Иран) (291 км)
Погода в Сирджане (Иран) (303 км)
Погода в Табасе (Иран) (311 км)
Погода в Ширазе (Иран) (312 км)
Погода в Кермане (Иран) (315 км)
Погода в Шехре-Корде (Иран) (326 км)
Погода в Фесе (Иран) (331 км)

Пояснения к столбцам:

Ветер - указаны скорость ветра в м/с - средняя за 10 мин, порывы в срок и между сроками (в фигурных скобках) и направление, откуда дует ветер: С - северный, СВ - северо-восточный, В - восточный, ЮВ - юго-восточный, Ю - южный, ЮЗ - юго-западный, З - западный, СЗ - северо-западный.
Видимость - горизонтальная дальность видимости в метрах или километрах. При видимости от 1 до 10 км при отсутствии осадков обычно наблюдается дымка, при ухудшении видимости до 1 км и менее - туман. В сухую погоду видимость может ухудшаться дымом, пылью или мглою.
Явления - указаны атмосферные явления, наблюдавшиеся в срок или в последний час перед сроком; фигурными скобками обозначены явления, наблюдавшиеся между сроками (за 1-3 часа до срока); квадратными скобками обозначены град или гололедные отложения с указанием их диаметра в мм.
Облачность - указаны через наклонную черту общая и нижняя облачность в баллах и высота нижней границы облаков в метрах; квадратными скобками обозначены формы облаков: Ci - перистые, Cs - перисто-слоистые, Cc - перисто-кучевые, Ac - высококучевые, As - высокослоистые, Sc - слоисто-кучевые, Ns - слоисто-дождевые, Cu - кучевые, Cb - кучево-дождевые. Подробнее классификацию облаков см. в Атласе облаков (PDF).
T - Температура воздуха - температура, измеренная на высоте 2 м над землей.
Td - Температура точки росы - температура, при понижении до которой содержащийся в воздухе водяной пар достигнет насыщения.
f - Относительная влажность воздуха - влажноcть воздуха, измеренная на высоте 2 м над землей.
Te - Эффективная температура - температура, которую ощущает одетый по сезону человек в тени. Характеристика душности погоды. При расчете учитывается влияние влажности воздуха и скорости ветра на теплоощущения человека.
Tes - Эффективная температура на солнце - температура, которую ощущает человек, с поправкой на солнечный нагрев. Характеристика знойности погоды. Зависит от высоты солнца над горизонтом, облачности и скорости ветра. Ночью, в пасмурную погоду, а также при ветре 12 м/с и более поправка равна нулю.
P - Атмосферное давление - приведенное к уровню моря атмосферное давление.
Po - Атмосферное давление - измеренное на уровне метеостанции атмосферное давление.
Tmin - Минимальная температура - минимум температуры воздуха на высоте 2 м над землей.
Tmax - Максимальная температура - максимум температуры воздуха на высоте 2 м над землей.
R - Количество осадков - Количество выпавших осадков за период времени, мм. При наведении курсора мыши на число - период времени, за который выпало указанное количество осадков.
R24 - Количество осадков - Количество выпавших осадков за 24 часа, мм.
S - Снежный покров - Высота снежного покрова, см. При наведении курсора мыши на число - состояние снежного покрова и степень покрытия местности в баллах.